TimeEST,TemperatureF,Dew PointF,Humidity,Sea Level PressureIn,VisibilityMPH,Wind Direction,Wind SpeedMPH,Gust SpeedMPH,PrecipitationIn,Events,Conditions,WindDirDegrees,DateUTC
12:53 AM,-9999,-9999,N/A,30.02,10.0,NNE,4.6,-,N/A,,Clear,30,2012-11-05 05:53:00
1:53 AM,-9999,-9999,N/A,30.01,10.0,NNE,4.6,-,N/A,,Clear,30,2012-11-05 06:53:00
2:53 AM,-9999,-9999,N/A,29.99,10.0,NE,4.6,-,N/A,,Clear,50,2012-11-05 07:53:00
3:53 AM,-9999,-9999,N/A,29.99,10.0,NE,3.5,-,N/A,,Clear,40,2012-11-05 08:53:00
4:53 AM,-9999,-9999,N/A,29.99,10.0,NE,4.6,-,N/A,,Clear,50,2012-11-05 09:53:00
5:53 AM,-9999,-9999,N/A,30.01,10.0,NNE,5.8,-,N/A,,Clear,20,2012-11-05 10:53:00
6:18 AM,71.6,66.2,83,30.01,10.0,NNE,6.9,-,N/A,,Scattered Clouds,30,2012-11-05 11:18:00
6:53 AM,71.6,66.0,82,30.01,10.0,NE,5.8,-,N/A,,Scattered Clouds,50,2012-11-05 11:53:00
7:53 AM,73.4,66.0,78,30.02,10.0,NE,3.5,-,N/A,,Mostly Cloudy,50,2012-11-05 12:53:00
8:53 AM,73.4,64.9,75,30.01,10.0,NE,5.8,-,N/A,,Mostly Cloudy,50,2012-11-05 13:53:00
9:53 AM,73.4,66.0,78,30.02,10.0,NE,6.9,-,N/A,,Mostly Cloudy,50,2012-11-05 14:53:00
10:53 AM,75.2,64.9,70,30.01,10.0,NNE,9.2,-,N/A,,Mostly Cloudy,20,2012-11-05 15:53:00
11:53 AM,75.2,64.0,68,30.00,10.0,NNE,6.9,-,N/A,,Mostly Cloudy,20,2012-11-05 16:53:00
12:53 PM,77.0,64.9,66,29.97,10.0,NNE,4.6,-,N/A,,Mostly Cloudy,30,2012-11-05 17:53:00
1:53 PM,78.8,63.0,58,29.96,10.0,North,6.9,-,N/A,,Mostly Cloudy,360,2012-11-05 18:53:00
2:53 PM,78.8,63.0,58,29.95,10.0,NNE,8.1,-,N/A,,Mostly Cloudy,20,2012-11-05 19:53:00
3:53 PM,77.0,63.0,62,29.96,10.0,NNE,5.8,-,N/A,,Mostly Cloudy,20,2012-11-05 20:53:00
4:53 PM,75.2,64.0,68,29.96,10.0,NE,3.5,-,N/A,,Mostly Cloudy,50,2012-11-05 21:53:00
5:53 PM,73.4,63.0,70,29.96,10.0,NNE,4.6,-,N/A,,Overcast,20,2012-11-05 22:53:00
6:53 PM,71.6,63.0,74,29.97,10.0,NNE,3.5,-,N/A,,Overcast,30,2012-11-05 23:53:00
7:53 PM,71.6,62.1,72,29.97,10.0,ENE,3.5,-,N/A,,Overcast,60,2012-11-06 00:53:00
8:53 PM,71.6,61.0,69,29.98,10.0,NNE,3.5,-,N/A,,Overcast,30,2012-11-06 01:53:00
9:53 PM,71.6,63.0,74,29.97,10.0,Calm,Calm,-,N/A,,Overcast,0,2012-11-06 02:53:00
10:53 PM,-9999,-9999,N/A,29.97,10.0,Calm,Calm,-,N/A,,Overcast,0,2012-11-06 03:53:00
11:53 PM,-9999,-9999,N/A,29.95,10.0,Calm,Calm,-,N/A,,Clear,0,2012-11-06 04:53:00